GW2364 Weather Reports


time (UTC)temp
F
wind
direction
speed
knots
gust
knots
rain 1hr
in
rain 24hr
in
rain mn
in
humidity
%
barometer
mb
20260901113003 76 236 0.0 1.7 0.00 0.00 0.00 90 1013.8
20260901111503 76 236 0.0 2.6 0.00 0.00 0.00 89 1013.7
20260901110005 76 236 0.9 2.6 0.00 0.00 0.00 89 1013.7
20260901104502 76 236 0.0 2.6 0.00 0.00 0.00 88 1013.6
20260901103002 77 228 0.9 3.5 0.00 0.00 0.00 87 1013.6
20260901101503 77 231 0.0 2.6 0.00 0.00 0.00 86 1013.5
20260901100004 77 230 0.9 3.5 0.00 0.00 0.00 86 1013.6
20260901094502 77 233 0.9 2.6 0.00 0.00 0.00 86 1013.7
20260901093002 77 240 0.0 0.9 0.00 0.00 0.00 85 1014.0
20260901091503 78 240 0.0 1.7 0.00 0.00 0.00 85 1013.9
20260901090007 78 240 0.0 1.7 0.00 0.00 0.00 84 1013.8
20260901084504 78 240 0.0 2.6 0.00 0.00 0.00 83 1013.7
20260901083002 79 76 0.0 0.9 0.00 0.00 0.00 82 1013.6
20260901081503 79 76 0.0 1.7 0.00 0.00 0.00 81 1013.7
20260901080004 79 76 0.0 0.9 0.00 0.00 0.00 80 1013.8
20260901074501 79 76 0.0 0.9 0.00 0.00 0.00 79 1013.7
20260901073001 80 76 0.0 1.7 0.00 0.00 0.00 78 1013.8
20260901071502 80 76 0.0 1.7 0.00 0.00 0.00 77 1013.8
20260901070004 81 76 0.0 1.7 0.00 0.00 0.00 76 1013.8
20260901064504 81 132 0.9 3.5 0.00 0.00 0.00 75 1013.7
20260901063008 81 109 0.0 5.2 0.00 0.00 0.00 74 1013.6
20260901061502 82 40 0.0 1.7 0.00 0.00 0.00 72 1013.5
20260901060005 82 93 0.9 5.2 0.00 0.00 0.00 71 1013.5
20260901054504 83 113 0.9 6.1 0.00 0.00 0.00 71 1013.3
20260901053003 83 92 0.9 4.3 0.00 0.00 0.00 70 1013.3
20260901051512 84 109 0.9 4.3 0.00 0.00 0.00 70 1013.1
20260901050009 84 100 0.0 3.5 0.00 0.00 0.00 68 1013.0
20260901044506 85 40 0.9 6.1 0.00 0.00 0.00 67 1013.0
20260901043005 85 60 1.7 7.0 0.00 0.00 0.00 66 1013.0
20260901041504 85 124 0.9 7.8 0.00 0.00 0.00 65 1013.0
20260901040006 86 77 0.9 5.2 0.00 0.00 0.00 63 1012.9
20260901034504 86 355 0.9 7.8 0.00 0.00 0.00 61 1012.9
20260901033005 87 145 2.6 8.7 0.00 0.00 0.00 59 1012.8
20260901031504 87 118 1.7 8.7 0.00 0.00 0.00 56 1012.7
20260901030006 88 90 1.7 7.0 0.00 0.00 0.00 53 1012.5
20260901024504 88 40 2.6 9.6 0.00 0.00 0.00 51 1012.3
20260901023004 88 93 0.9 3.5 0.00 0.00 0.00 48 1011.9
20260901021504 88 80 1.7 5.2 0.00 0.00 0.00 48 1011.8
20260901020007 88 62 0.9 3.5 0.00 0.00 0.00 48 1011.6
20260901014511 89 72 0.9 1.7 0.00 0.00 0.00 47 1011.3
20260901013004 90 72 0.9 1.7 0.00 0.00 0.00 46 1011.3
20260901011504 91 72 0.9 3.5 0.00 0.00 0.00 44 1011.1
20260901010006 91 90 0.0 2.6 0.00 0.00 0.00 43 1011.0
20260901004504 92 88 0.9 6.1 0.00 0.00 0.00 43 1010.9
20260901003005 93 78 0.9 3.5 0.00 0.00 0.00 42 1010.8
20260901001503 94 74 1.7 5.2 0.00 0.00 0.00 41 1010.8
20260901000006 95 69 2.6 6.1 0.00 0.00 0.00 41 1010.7
20260831234507 95 155 1.7 7.0 0.00 0.00 0.00 40 1010.8
20260831233004 96 106 0.9 7.0 0.00 0.00 0.00 41 1010.6
20260831231504 97 105 3.5 7.0 0.00 0.00 0.00 39 1010.7
20260831230005 97 114 1.7 4.3 0.00 0.00 0.00 38 1010.8
20260831224503 98 76 0.9 7.0 0.00 0.00 0.00 40 1010.9
20260831223004 97 61 0.9 3.5 0.00 0.00 0.00 41 1010.9
20260831221504 97 130 2.6 6.1 0.00 0.00 0.00 41 1011.1
20260831220006 97 60 2.6 7.8 0.00 0.00 0.00 42 1011.0
20260831214508 97 77 2.6 5.2 0.00 0.00 0.00 42 1011.3
20260831213005 98 138 1.7 6.1 0.00 0.00 0.00 40 1011.7
20260831211504 99 257 1.7 7.8 0.00 0.00 0.00 39 1011.7
20260831210005 99 101 3.5 9.6 0.00 0.00 0.00 38 1012.0
20260831204503 99 102 2.6 7.0 0.00 0.00 0.00 40 1012.2
20260831203002 98 47 0.9 8.7 0.00 0.00 0.00 39 1012.6
20260831201503 98 46 2.6 7.8 0.00 0.00 0.00 42 1012.8
20260831200008 98 79 1.7 7.8 0.00 0.00 0.00 41 1013.0
20260831194504 97 63 0.9 5.2 0.00 0.00 0.00 44 1013.2
20260831193004 95 61 1.7 7.8 0.00 0.00 0.00 46 1013.4
20260831191503 94 104 2.6 7.0 0.00 0.00 0.00 50 1013.6
20260831190006 95 123 1.7 8.7 0.00 0.00 0.00 49 1013.7
20260831184502 95 34 2.6 8.7 0.00 0.00 0.00 49 1014.0
20260831183003 95 80 2.6 10.4 0.00 0.00 0.00 50 1014.1
20260831181503 95 94 1.7 7.8 0.00 0.00 0.00 52 1014.1
20260831180014 93 251 0.9 7.0 0.00 0.00 0.00 53 1014.3
20260831174503 93 105 1.7 8.7 0.00 0.00 0.00 53 1014.6
20260831173005 93 90 2.6 7.8 0.00 0.00 0.00 54 1014.8
20260831171503 92 245 0.9 6.1 0.00 0.00 0.00 58 1015.0
20260831170005 92 130 2.6 6.1 0.00 0.00 0.00 57 1014.9
20260831164502 90 237 0.9 5.2 0.00 0.00 0.00 61 1015.0
20260831163003 90 225 2.6 6.1 0.00 0.00 0.00 63 1015.1
20260831161503 88 246 1.7 5.2 0.00 0.00 0.00 66 1015.1
20260831160005 87 230 0.9 6.1 0.00 0.00 0.00 69 1014.9
20260831154503 87 230 0.9 6.1 0.00 0.00 0.00 71 1015.0
20260831153003 86 117 2.6 7.0 0.00 0.00 0.00 71 1014.9
20260831151503 85 221 2.6 8.7 0.00 0.00 0.00 73 1014.8
20260831150005 86 342 0.9 5.2 0.00 0.00 0.00 72 1014.8
20260831144502 84 205 0.9 3.5 0.00 0.00 0.00 78 1014.6
20260831143003 82 237 1.7 6.1 0.00 0.00 0.00 81 1014.6
20260831141502 82 252 0.9 4.3 0.00 0.00 0.00 84 1014.5
20260831140007 80 213 0.9 6.1 0.00 0.00 0.00 86 1014.3
20260831134503 79 207 0.9 3.5 0.00 0.00 0.00 90 1014.3
20260831133002 78 240 0.9 3.5 0.00 0.00 0.00 91 1014.2
20260831131503 77 225 0.0 1.7 0.00 0.00 0.00 93 1014.1
20260831130005 77 225 0.0 1.7 0.00 0.00 0.00 93 1014.0
20260831124503 76 225 0.0 1.7 0.00 0.00 0.00 94 1013.8
20260831123003 76 225 0.0 1.7 0.00 0.00 0.00 93 1013.8
20260831121505 76 225 0.0 0.9 0.00 0.00 0.00 93 1013.7
20260831120007 76 225 0.0 0.9 0.00 0.00 0.00 92 1013.6
20260831114506 76 225 0.0 0.9 0.00 0.00 0.00 92 1013.6